Regional Weather Roundup
Issued by NWS

Home | Current Version | Previous Version | Text Only | Print | Product List | Glossary Off
Versions: 1 2 3 4 5 6 7 8 9 10 11 12 13 14 15 16 17 18 19 20 21 22 23 24 25 26 27 28 29 30 31 32 33 34 35 36 37 38 39 40 41 42 43 44 45 46 47 48 49 50

000
ASUS43 KDMX 102101
RWRIA

WEATHER ROUNDUP FOR IOWA
NATIONAL WEATHER SERVICE DES MOINES IA
300 PM CST SUN DEC 10 2017

NOTE: "FAIR" INDICATES FEW OR NO CLOUDS BELOW 12,000 FEET WITH NO
SIGNIFICANT WEATHER AND/OR OBSTRUCTIONS TO VISIBILITY.

* - THESE STATIONS ARE NOT NWS STATIONS...THUS NOT UNDER NWS
QUALITY CONTROL.  THEY ALSO DO NOT REPORT WEATHER SUCH
AS PRECIPITATION OR FOG.

IAZ001>003-012>014-020>022-031>034-043>046-102200-
   NORTHWEST IOWA

CITY           SKY/WX    TMP DP  RH WIND       PRES   REMARKS
CARROLL *      SUNNY     46  25  42 NW20G25   30.06R
DENISON *      SUNNY     48  27  43 NW16G22   30.09R
LE MARS *      SUNNY     45  30  57 W10       30.07F
ORANGE CITY *  SUNNY     45  32  61 NW10      30.05F
SHELDON *      CLOUDY    43  30  61 NW12      30.02F
SIOUX CITY     SUNNY     48  27  44 NW17      30.08S
SPENCER        SUNNY     42  28  57 W14       30.04F
STORM LAKE *   SUNNY     43  27  52 NW16      30.05R
$$

IAZ055>058-069>071-079>083-090>094-102200-
   SOUTHWEST IOWA

CITY           SKY/WX    TMP DP  RH WIND       PRES   REMARKS
ATLANTIC *     SUNNY     50  27  40 NW16      30.07R
AUDUBON *      SUNNY     48  25  40 W8        30.07R
CLARINDA *     SUNNY     52  27  37 NW10        N/A
COUNCIL BLFS * SUNNY     52  27  37 NW9G17    30.09R
CRESTON *      SUNNY     50  25  37 NW17      30.06S
HARLAN  *      SUNNY     50  27  40 NW17      30.11R
LAMONI         SUNNY     51  25  36 NW17      30.05R
RED OAK *      SUNNY     52  27  37 W12G20    30.09S
SHENANDOAH *   SUNNY     52  27  37 W12       30.10S
$$

IAZ047>049-059>061-072>074-084-102200-
   CENTRAL IOWA

CITY           SKY/WX    TMP DP  RH WIND       PRES   REMARKS
AMES           SUNNY     45  26  47 NW15      30.03S
ANKENY *       SUNNY     45  27  49 NW13G20   30.05S
BOONE *        SUNNY     45  25  45 NW15G22   30.02S
CHARITON *     SUNNY     48  25  40 NW15      30.04R
DES MOINES     PTSUNNY   47  25  42 NW15      30.04R
GRINNELL*      SUNNY     41  25  51 NW16      30.03R
KNOXVILLE *    CLOUDY    45  23  42 NW13      30.03R
MARSHALLTOWN   SUNNY     41  24  51 NW15      30.02R
NEWTON *       SUNNY     45  25  45 NW15      30.03R
PELLA *        CLOUDY    46  24  42 NW14      30.04S
$$

IAZ004>006-015-016-023>025-035-036-102200-
   NORTH CENTRAL IOWA

CITY           SKY/WX    TMP DP  RH WIND       PRES   REMARKS
ALGONA *       SUNNY     41  27  56 NW17      30.04R
CLARION *      SUNNY     41  27  56 NW18      30.03R
ESTHERVILLE    SUNNY     38  27  64 NW14      30.03R WCI  30
FORT DODGE *   SUNNY     43  25  49 W14       30.03S
MASON CITY     SUNNY     34  22  61 NW12      30.03R WCI  25
FOREST CITY *    N/A     36  27  69 NW13      30.03R WCI  27
IOWA FALLS *     N/A     41  25  51 NW18      30.03R
$$

IAZ007>011-017>019-026>030-037>042-050>054-066-102200-
   NORTHEAST IOWA

CITY           SKY/WX    TMP DP  RH WIND       PRES   REMARKS
CEDAR RAPIDS   SUNNY     38  24  57 N13       30.00R WCI  30
CHARLES CITY * SUNNY     34  23  64 NW13      30.01R WCI  25
CLINTON *      CLOUDY    34  23  64 NW16      30.00R WCI  24
DECORAH *      CLOUDY    28  21  74 N14       30.00R WCI  17
DUBUQUE        CLOUDY    30  21  69 NW12      30.00R WCI  20
MONTICELLO *   MOSUNNY   34  23  64 NW13      30.01R WCI  25
OELWEIN *      MOSUNNY   32  23  69 N10G18    30.02R WCI  24
WATERLOO       SUNNY     37  22  54 NW13      30.02R WCI  29
$$

IAZ064-065-067-068-078-102200-
   EAST CENTRAL IOWA

CITY           SKY/WX    TMP DP  RH WIND       PRES   REMARKS
DAVENPORT      SUNNY     37  23  56 NW12      30.01R WCI  29
IOWA CITY      SUNNY     40  24  53 NW13      30.03R WCI  32
MT. PLEASANT * CLOUDY    41  23  49 NW10G18   30.01R
MUSCATINE *    CLOUDY    39  23  52 NW15G21   30.02R WCI  31
QUAD CITIES    SUNNY     40  24  53 NW10G21   29.98R WCI  33
$$

IAZ062-063-075>077-085>089-095>099-102200-
   SOUTHEAST IOWA

CITY           SKY/WX    TMP DP  RH WIND       PRES   REMARKS
BURLINGTON     CLOUDY    43  25  49 NW13G22   30.00R
FAIRFIELD *    CLOUDY    43  23  45 NW12G20   30.01S
FORT MADISON * CLOUDY    43  25  49 NW15G21   30.02R
KEOKUK *       CLOUDY    45  25  45 NW14      30.02R
OTTUMWA        CLOUDY    45  24  43 NW14      30.02S
WASHINGTON *   CLOUDY    41  25  52 NW16      30.03R
$$

ABBREVIATIONS USED IN REMARKS
   TC - TEMPERATURES IN CELSIUS
  WCI - WIND CHILL INDEX
   HX - HEAT INDEX
  VSB - VISIBILITY
$$





USA.gov is the U.S. government's official web portal to all federal, state and local government web resources and services.